Peutz Valley (1458, 357, 356, 1147) Station Data

Red Flag Warning: No
Fire Weather Zone: 250
SDGE Region: Eastern
Lat/Lon: 32.859/-116.768

Observations

Time Wind Speed/Gust Temp(F) RH Fuel Moist Fuel Temp(F) Dewpt(F) Tmax(F) Tmin(F) Accum Precip 10-min Precip SL Press(mb)
6/22 5:00am 86 2 G 2 59° 80% - - 53° 66.4° 58.1° - - -
6/22 4:50am 80 1 G 2 60° 81% - - 54° 66.4° 58.1° - - -
6/22 4:40am 94 2 G 2 59° 82% - - 53° 66.4° 58.1° - - -
6/22 4:30am 85 1 G 2 59° 83% - - 54° 66.4° 58.1° - - -
6/22 4:20am 87 1 G 2 59° 82% - - 54° 66.4° 58.1° - - -
6/22 4:10am 89 1 G 2 59° 82% - - 53° 66.4° 58.1° - - -
6/22 4:00am 87 1 G 2 59° 83% - - 54° 66.4° 58.3° - - -
6/22 3:50am 93 1 G 2 59° 83% - - 54° 66.4° 58.7° - - -
6/22 3:40am 84 1 G 1 60° 84% - - 55° 66.4° 59° - - -
6/22 3:30am 103 1 G 1 59° 83% - - 54° 66.4° 59° - - -
6/22 3:20am 93 1 G 2 60° 83% - - 55° 66.4° 59.4° - - -
6/22 3:10am 91 1 G 2 61° 82% - - 55° 66.4° 59.9° - - -
6/22 3:00am 98 1 G 2 61° 82% - - 55° 66.4° 60.2° - - -
6/22 2:50am 88 1 G 2 61° 81% - - 55° 66.4° 60.6° - - -
6/22 2:40am 90 1 G 2 61° 81% - - 55° 66.4° 60.8° - - -
6/22 2:30am 85 1 G 2 61° 81% - - 55° 66.4° 60.8° - - -
6/22 2:20am 89 1 G 2 61° 80% - - 55° 66.4° 61° - - -
6/22 2:10am 99 1 G 2 62° 79% - - 55° 66.4° 61.2° - - -
6/22 2:00am 82 1 G 2 63° 78% - - 56° 66.4° 61.9° - - -
6/22 1:50am 90 1 G 2 62° 78% - - 55° 66.4° 61.9° - - -
6/22 1:40am 86 1 G 2 63° 78% - - 56° 66.4° 62.1° - - -
6/22 1:30am 86 1 G 2 63° 77% - - 55° 66.4° 62.1° - - -
6/22 1:20am 95 1 G 2 63° 76% - - 56° 66.4° 62.8° - - -
6/22 1:10am 90 2 G 3 64° 75% - - 55° 66.4° 62.8° - - -
6/22 1:00am 90 1 G 2 64° 74% - - 56° 66.4° 63.7° - - -
6/22 12:50am 89 1 G 2 65° 73% - - 56° 66.4° 64.2° - - -
6/22 12:40am 88 2 G 3 65° 74% - - 56° 66.4° 64.2° - - -
6/22 12:30am 88 2 G 3 65° 73% - - 56° 66.4° 64.2° - - -
6/22 12:20am 92 2 G 3 65° 72% - - 56° 66.4° 64.4° - - -
6/22 12:10am 79 2 G 3 66° 72% - - 56° 66.4° 65.4° - - -
6/22 12:00am 90 1 G 2 66° 72% - - 56° 96.4° 64.3° - - -
6/21 11:50pm 86 1 G 3 65° 74% - - 57° 96.4° 64.3° - - -
6/21 11:40pm 84 2 G 2 65° 75% - - 57° 96.4° 64.3° - - -
6/21 11:30pm 90 1 G 2 65° 74% - - 57° 96.4° 64.9° - - -
6/21 11:20pm 86 1 G 2 66° 74% - - 58° 96.4° 65.5° - - -
6/21 11:10pm 87 1 G 2 66° 74% - - 57° 96.4° 65.5° - - -
6/21 11:00pm 94 2 G 3 66° 73% - - 58° 96.4° 65.8° - - -
6/21 10:50pm 83 2 G 3 67° 74% - - 58° 96.4° 66° - - -
6/21 10:40pm 89 2 G 2 66° 75% - - 58° 96.4° 66° - - -
6/21 10:30pm 93 2 G 3 66° 74% - - 58° 96.4° 66° - - -
6/21 10:20pm 86 2 G 2 67° 74% - - 58° 96.4° 66.5° - - -
6/21 10:10pm 86 2 G 2 67° 74% - - 59° 96.4° 66.8° - - -
6/21 10:00pm 92 2 G 3 67° 73% - - 59° 96.4° 67° - - -
6/21 9:50pm 91 2 G 3 68° 71% - - 59° 96.4° 67.1° - - -
6/21 9:40pm 83 2 G 2 69° 71% - - 59° 96.4° 67.1° - - -
6/21 9:30pm 88 2 G 3 69° 70% - - 59° 96.4° 67.1° - - -
6/21 9:20pm 86 2 G 2 70° 69% - - 59° 96.4° 67.1° - - -
6/21 9:10pm 85 2 G 2 71° 67% - - 59° 96.4° 67.1° - - -
6/21 9:00pm 88 1 G 2 72° 65% - - 60° 96.4° 67.1° - - -
6/21 8:50pm 90 1 G 2 72° 65% - - 60° 96.4° 67.1° - - -
6/21 8:40pm 90 2 G 3 73° 64% - - 60° 96.4° 67.1° - - -
6/21 8:30pm 86 1 G 3 74° 61% - - 60° 96.4° 67.1° - - -
6/21 8:20pm 82 1 G 2 76° 59% - - 60° 96.4° 67.1° - - -
6/21 8:10pm 200 0 G 1 77° 56% - - 61° 96.4° 67.1° - - -
6/21 8:00pm 243 2 G 3 78° 55% - - 61° 96.4° 67.1° - - -
6/21 7:50pm 253 2 G 3 79° 54% - - 61° 96.4° 67.1° - - -
6/21 7:40pm 266 2 G 4 80° 52% - - 61° 96.4° 67.1° - - -
6/21 7:30pm 264 2 G 4 80° 51% - - 61° 96.4° 67.1° - - -
6/21 7:20pm 249 3 G 5 81° 50% - - 61° 96.4° 67.1° - - -
6/21 7:10pm 261 3 G 5 82° 49% - - 61° 96.4° 67.1° - - -
6/21 7:00pm 256 4 G 5 83° 48% - - 61° 96.4° 67.1° - - -
6/21 6:50pm 264 4 G 7 83° 47% - - 61° 96.4° 67.1° - - -
6/21 6:40pm 245 4 G 7 84° 46% - - 61° 96.4° 67.1° - - -
6/21 6:30pm 251 4 G 7 85° 45% - - 61° 96.4° 67.1° - - -
6/21 6:20pm 256 4 G 6 85° 44% - - 61° 96.4° 67.1° - - -
6/21 6:10pm 250 4 G 7 86° 43% - - 61° 96.4° 67.1° - - -
6/21 6:00pm 265 4 G 7 87° 41% - - 60° 96.4° 67.1° - - -
6/21 5:50pm 262 5 G 8 87° 41% - - 60° 96.4° 67.1° - - -
6/21 5:40pm 252 5 G 8 87° 41% - - 60° 96.4° 67.1° - - -
6/21 5:30pm 248 5 G 9 88° 39% - - 60° 96.4° 67.1° - - -
6/21 5:20pm 240 4 G 8 89° 39% - - 60° 96.4° 67.1° - - -
6/21 5:10pm 258 4 G 7 89° 39% - - 60° 96.4° 67.1° - - -
6/21 5:00pm 266 5 G 9 89° 39% - - 61° 96.4° 67.1° - - -
6/21 4:50pm 269 5 G 9 89° 39% - - 60° 96.4° 67.1° - - -
6/21 4:40pm 243 4 G 9 89° 39% - - 61° 96.4° 67.1° - - -
6/21 4:30pm 240 6 G 11 88° 40% - - 61° 96.4° 67.1° - - -
6/21 4:20pm 267 5 G 9 90° 38% - - 61° 96.4° 67.1° - - -
6/21 4:10pm 251 5 G 10 90° 38% - - 61° 96.4° 67.1° - - -
6/21 4:00pm 254 6 G 10 89° 38% - - 60° 96.4° 67.1° - - -
6/21 3:50pm 264 7 G 11 90° 37% - - 60° 96.4° 67.1° - - -
6/21 3:40pm 269 7 G 12 90° 37% - - 60° 96.4° 67.1° - - -
6/21 3:30pm 254 6 G 11 90° 37% - - 60° 96.4° 67.1° - - -
6/21 3:20pm 249 6 G 10 91° 36% - - 60° 96.4° 67.1° - - -
6/21 3:10pm 255 6 G 9 91° 36% - - 61° 96.4° 67.1° - - -
6/21 3:00pm 251 7 G 12 91° 37% - - 61° 96.4° 67.1° - - -
6/21 2:50pm 253 6 G 12 92° 35% - - 60° 96.4° 67.1° - - -
6/21 2:40pm 258 6 G 11 92° 35% - - 60° 96.4° 67.1° - - -
6/21 2:30pm 266 7 G 12 92° 35% - - 60° 96.4° 67.1° - - -
6/21 2:20pm 260 7 G 12 93° 33% - - 60° 96.4° 67.1° - - -
6/21 2:10pm 262 7 G 12 93° 32% - - 59° 96.4° 67.1° - - -
6/21 2:00pm 263 7 G 12 94° 31% - - 59° 96.4° 67.1° - - -
6/21 1:50pm 252 6 G 11 95° 29% - - 58° 96.4° 67.1° - - -
6/21 1:40pm 261 6 G 10 95° 28% - - 57° 96.4° 67.1° - - -
6/21 1:30pm 260 6 G 13 95° 28% - - 57° 96.4° 67.1° - - -
6/21 1:20pm 270 5 G 10 95° 28% - - 57° 96.4° 67.1° - - -
6/21 1:10pm 267 6 G 10 95° 29% - - 57° 95.1° 67.1° - - -
6/21 1:00pm 266 4 G 9 94° 30% - - 57° 95.1° 67.1° - - -
6/21 12:50pm 270 5 G 9 94° 29% - - 57° 95.1° 67.1° - - -
6/21 12:40pm 263 4 G 9 94° 30% - - 58° 95.1° 67.1° - - -
6/21 12:30pm 249 4 G 9 93° 30% - - 58° 94.1° 67.1° - - -
6/21 12:20pm 256 5 G 9 93° 30% - - 57° 94° 67.1° - - -
6/21 12:10pm 252 4 G 9 93° 30% - - 57° 93.8° 67.1° - - -
6/21 12:00pm 230 4 G 8 93° 31% - - 58° 93.8° 67.1° - - -
6/21 11:50am 242 5 G 9 92° 32% - - 58° 92.9° 67.1° - - -
6/21 11:40am 256 5 G 9 92° 33% - - 58° 92.9° 67.1° - - -
6/21 11:30am 228 5 G 9 91° 33% - - 58° 92.4° 67.1° - - -
6/21 11:20am 236 4 G 9 92° 33% - - 58° 92.4° 67.1° - - -
6/21 11:10am 251 5 G 10 91° 32% - - 57° 92.2° 67.1° - - -
6/21 11:00am 244 4 G 7 90° 32% - - 57° 91.1° 67.1° - - -
6/21 10:50am 231 4 G 7 90° 32% - - 56° 91.1° 67.1° - - -
6/21 10:40am 249 4 G 6 90° 32% - - 56° 90.9° 67.1° - - -
6/21 10:30am 240 4 G 6 89° 33% - - 56° 89.5° 67.1° - - -
6/21 10:20am 245 4 G 6 88° 33% - - 55° 89.1° 67.1° - - -
6/21 10:10am 239 3 G 5 88° 34% - - 56° 89.1° 67.1° - - -
6/21 10:00am 242 4 G 6 87° 34% - - 55° 88.1° 67.1° - - -
6/21 9:50am 233 3 G 6 87° 33% - - 55° 87.9° 67.1° - - -
6/21 9:40am 231 3 G 5 87° 33% - - 54° 87.2° 67.1° - - -
6/21 9:30am 222 3 G 5 86° 32% - - 53° 86.8° 67.1° - - -
6/21 9:20am 231 2 G 4 86° 30% - - 51° 86.8° 67.1° - - -
6/21 9:10am 251 3 G 5 85° 28% - - 49° 85.8° 67.1° - - -
6/21 9:00am 243 2 G 4 84° 33% - - 52° 85.1° 67.1° - - -
6/21 8:50am 239 2 G 3 84° 36% - - 54° 84.5° 67.1° - - -
6/21 8:40am 242 1 G 2 83° 37% - - 54° 83.6° 67.1° - - -
6/21 8:30am 242 2 G 3 82° 37% - - 53° 82.4° 67.1° - - -
6/21 8:20am 246 1 G 2 81° 40% - - 54° 82.4° 67.1° - - -
6/21 8:10am 245 2 G 3 80° 42% - - 55° 82.4° 67.1° - - -
6/21 8:00am 233 1 G 2 82° 41% - - 55° 82.4° 67.1° - - -
6/21 7:50am 96 1 G 1 80° 43% - - 56° 81.3° 67.1° - - -
6/21 7:40am 107 1 G 2 78° 47% - - 56° 79.2° 67.1° - - -
6/21 7:30am 103 1 G 2 76° 49% - - 56° 77.2° 67.1° - - -
6/21 7:20am 86 2 G 3 73° 51% - - 54° 75° 67.1° - - -
6/21 7:10am 99 2 G 3 72° 51% - - 53° 75° 67.1° - - -
6/21 7:00am 88 3 G 4 71° 51% - - 52° 75° 67.1° - - -
6/21 6:50am 95 2 G 4 70° 50% - - 51° 75° 67.1° - - -
6/21 6:40am 90 3 G 4 69° 52% - - 51° 75° 67.1° - - -
6/21 6:30am 107 2 G 5 69° 52% - - 50° 75° 67.1° - - -
6/21 6:20am 92 3 G 4 69° 50% - - 50° 75° 67.1° - - -
6/21 6:10am 85 3 G 5 70° 49% - - 49° 75° 67.1° - - -
6/21 6:00am 90 3 G 4 68° 52% - - 50° 75° 67.1° - - -
6/21 5:50am 91 2 G 4 68° 52% - - 50° 75° 67.3° - - -
6/21 5:40am 96 3 G 4 68° 53% - - 50° 75° 67.3° - - -
6/21 5:30am 93 3 G 4 68° 53% - - 50° 75° 67.7° - - -
6/21 5:20am 89 3 G 5 69° 52% - - 51° 75° 68.1° - - -
6/21 5:10am 83 3 G 4 69° 52% - - 51° 75° 68.6° - - -
6/21 5:00am 90 3 G 4 70° 52% - - 51° 75° 68.6° - - -
6/21 4:50am 88 3 G 4 69° 54% - - 52° 75° 68.6° - - -
6/21 4:40am 105 2 G 4 70° 52% - - 52° 75° 68.9° - - -
6/21 4:30am 86 3 G 5 71° 50% - - 52° 75° 69.1° - - -
6/21 4:20am 76 3 G 5 72° 50% - - 53° 75° 69.1° - - -
6/21 4:10am 81 3 G 6 71° 53% - - 53° 75° 69.1° - - -
6/21 4:00am 75 3 G 5 72° 51% - - 53° 75° 69.1° - - -
6/21 3:50am 71 3 G 5 71° 53% - - 53° 75° 69.1° - - -
6/21 3:40am 95 3 G 4 70° 55% - - 53° 75° 69.1° - - -
6/21 3:30am 86 2 G 3 71° 54% - - 53° 75° 69.1° - - -
6/21 3:20am 92 3 G 5 70° 55% - - 53° 75° 69.1° - - -
6/21 3:10am 101 3 G 4 70° 56% - - 53° 75° 69.1° - - -
6/21 3:00am 89 2 G 4 71° 54% - - 54° 75° 69.4° - - -
6/21 2:50am 98 2 G 4 70° 55% - - 53° 75° 69.4° - - -
6/21 2:40am 94 2 G 5 72° 53% - - 54° 75° 69.4° - - -
6/21 2:30am 89 2 G 4 72° 52% - - 54° 75° 69.4° - - -
6/21 2:20am 99 2 G 4 72° 53% - - 53° 75° 69.4° - - -
6/21 2:10am 85 3 G 6 73° 50% - - 54° 75° 69.4° - - -
6/21 2:00am 85 3 G 6 71° 53% - - 53° 73.5° 69.4° - - -
6/21 1:50am 96 3 G 4 71° 53% - - 53° 73.5° 69.4° - - -
6/21 1:40am 92 3 G 4 71° 53% - - 53° 73.5° 69.4° - - -
6/21 1:30am 97 2 G 4 71° 53% - - 53° 73.5° 69.4° - - -
6/21 1:20am 89 3 G 5 72° 53% - - 53° 72.9° 69.4° - - -
6/21 1:10am 86 3 G 4 71° 55% - - 54° 72.6° 69.4° - - -
6/21 1:00am 99 3 G 4 70° 56% - - 54° 72.6° 69.4° - - -
6/21 12:50am 100 3 G 4 70° 56% - - 54° 72.6° 69.6° - - -
6/21 12:40am 92 3 G 4 70° 56% - - 54° 72.6° 69.9° - - -
6/21 12:30am 96 3 G 4 71° 55% - - 54° 72.6° 70.1° - - -
6/21 12:20am 91 3 G 4 71° 55% - - 54° 72.6° 70.4° - - -
6/21 12:10am 88 3 G 4 71° 54% - - 54° 72.6° 70.4° - - -
6/21 12:00am 90 3 G 4 72° 53% - - 54° 98.5° 66.1° - - -
6/20 11:50pm 87 3 G 5 73° 52% - - 54° 98.5° 66.1° - - -
6/20 11:40pm 89 3 G 4 72° 53% - - 54° 98.5° 66.1° - - -
6/20 11:30pm 89 2 G 4 73° 52% - - 54° 98.5° 66.1° - - -
6/20 11:20pm 91 3 G 4 72° 54% - - 54° 98.5° 66.1° - - -
6/20 11:10pm 88 3 G 5 73° 53% - - 55° 98.5° 66.1° - - -
6/20 11:00pm 84 3 G 4 73° 53% - - 55° 98.5° 66.1° - - -
6/20 10:50pm 97 3 G 4 72° 55% - - 55° 98.5° 66.1° - - -
6/20 10:40pm 89 3 G 4 73° 54% - - 55° 98.5° 66.1° - - -
6/20 10:30pm 95 3 G 4 73° 53% - - 55° 98.5° 66.1° - - -
6/20 10:20pm 89 3 G 4 73° 54% - - 55° 98.5° 66.1° - - -
6/20 10:10pm 102 3 G 4 73° 53% - - 55° 98.5° 66.1° - - -
6/20 10:00pm 91 3 G 4 74° 53% - - 55° 98.5° 66.1° - - -
6/20 9:50pm 89 3 G 4 75° 51% - - 55° 98.5° 66.1° - - -
6/20 9:40pm 85 3 G 4 75° 52% - - 56° 98.5° 66.1° - - -
6/20 9:30pm 92 2 G 3 75° 51% - - 56° 98.5° 66.1° - - -
6/20 9:20pm 87 3 G 4 75° 51% - - 56° 98.5° 66.1° - - -
6/20 9:10pm 84 3 G 4 75° 51% - - 56° 98.5° 66.1° - - -
6/20 9:00pm 89 2 G 4 76° 50% - - 56° 98.5° 66.1° - - -
6/20 8:50pm 93 2 G 5 77° 48% - - 56° 98.5° 66.1° - - -
6/20 8:40pm 73 3 G 5 79° 46% - - 56° 98.5° 66.1° - - -
6/20 8:30pm 67 3 G 5 80° 45% - - 57° 98.5° 66.1° - - -
6/20 8:20pm 75 3 G 5 80° 45% - - 57° 98.5° 66.1° - - -
6/20 8:10pm 78 3 G 4 80° 45% - - 57° 98.5° 66.1° - - -
6/20 8:00pm 81 2 G 4 82° 43% - - 57° 98.5° 66.1° - - -
6/20 7:50pm 96 1 G 2 85° 39% - - 57° 98.5° 66.1° - - -
6/20 7:40pm 251 1 G 3 86° 37% - - 56° 98.5° 66.1° - - -
6/20 7:30pm 254 3 G 4 87° 36% - - 56° 98.5° 66.1° - - -
6/20 7:20pm 260 3 G 5 87° 35% - - 56° 98.5° 66.1° - - -
6/20 7:10pm 255 3 G 5 88° 35% - - 57° 98.5° 66.1° - - -
6/20 7:00pm 255 3 G 6 88° 35% - - 57° 98.5° 66.1° - - -
6/20 6:50pm 262 3 G 6 89° 34% - - 57° 98.5° 66.1° - - -
6/20 6:40pm 250 4 G 7 89° 34% - - 57° 98.5° 66.1° - - -
6/20 6:30pm 259 4 G 6 90° 33% - - 57° 98.5° 66.1° - - -
6/20 6:20pm 256 4 G 7 90° 33% - - 57° 98.5° 66.1° - - -
6/20 6:10pm 253 5 G 9 91° 32% - - 57° 98.5° 66.1° - - -
6/20 6:00pm 250 5 G 9 92° 31% - - 57° 98.5° 66.1° - - -